Location: Waco, TX
(31.5480°N, 97.1670°W)
Time: 03:38:38
(UTC-05:00)

ISS - Pass Details

Date: 23 May 2017
Orbit: 401 x 408 km, 51.6° (Epoch: 23 June)

Event Time Altitude Azimuth Distance (km) Brightness Sun altitude
Rises 06:45:05 0° 304° (NW) 2,319 -0.3 2.6°
Reaches altitude 10° 06:47:19 10° 293° (WNW) 1,454 -1.4 3.0°
Maximum altitude 06:50:12 30° 230° (SW) 756 -2.9 3.6°
Drops below altitude 10° 06:53:05 10° 168° (SSE) 1,443 -1.1 4.2°
Sets 06:55:17 0° 157° (SSE) 2,296 0.0 4.6°
